When you browse on this site, cookies collect data to enhance your experience and personalize the content and advertising you see.
Visit our Privacy Policy to learn more. By continuing to use the site, you agree to this use of cookies and data.

Hourly Weather Graz

Today, 13 July, Monday

Time Temperature Precipitation Wind Pressure Humidity
00:00 +12°C° 0 mm 1 mps 730 mmHg 82%
01:00 +12°C° 0 mm 1 mps 730 mmHg 81%
02:00 +12°C° 0 mm 1 mps 730 mmHg 81%
03:00 +11°C° 0 mm 1 mps 729 mmHg 82%
04:00 +11°C° 0 mm 1 mps 729 mmHg 83%
05:00 +13°C° 0 mm 1 mps 729 mmHg 77%
06:00 +14°C° 0 mm 0 mps 729 mmHg 70%
07:00 +16°C° 0 mm 0 mps 730 mmHg 64%
08:00 +20°C° 0 mm 1 mps 730 mmHg 57%
09:00 +21°C° 0 mm 1 mps 729 mmHg 51%
10:00 +21°C° 0 mm 2 mps 729 mmHg 45%
11:00 +21°C° 0 mm 2 mps 729 mmHg 43%
12:00 +23°C° 0 mm 2 mps 728 mmHg 42%
13:00 +23°C° 0 mm 2 mps 728 mmHg 40%
14:00 +23°C° 0 mm 2 mps 728 mmHg 42%
15:00 +23°C° 0 mm 2 mps 727 mmHg 43%
16:00 +23°C° 0 mm 2 mps 726 mmHg 45%
17:00 +21°C° 0 mm 2 mps 726 mmHg 53%
18:00 +20°C° 0 mm 1 mps 726 mmHg 61%
19:00 +19°C° 0 mm 1 mps 726 mmHg 69%
20:00 +16°C° 0 mm 1 mps 726 mmHg 72%
21:00 +15°C° 0 mm 1 mps 726 mmHg 74%
22:00 +13°C° 0 mm 0 mps 726 mmHg 76%
23:00 +12°C° 0 mm 0 mps 726 mmHg 78%

Tomorrow, 14 July, Tuesday

Time Temperature Precipitation Wind Pressure Humidity
00:00 +12°C° 0 mm 0 mps 726 mmHg 80%
01:00 +12°C° 0 mm 0 mps 726 mmHg 81%
02:00 +11°C° 0 mm 0 mps 726 mmHg 82%
03:00 +12°C° 0 mm 1 mps 725 mmHg 83%
04:00 +12°C° 0 mm 1 mps 725 mmHg 85%
05:00 +12°C° 0 mm 0 mps 725 mmHg 79%
06:00 +14°C° 0 mm 0 mps 725 mmHg 73%
07:00 +16°C° 0 mm 0 mps 725 mmHg 67%
08:00 +19°C° 0 mm 1 mps 725 mmHg 61%
09:00 +21°C° 0 mm 1 mps 725 mmHg 55%
10:00 +21°C° 0 mm 2 mps 725 mmHg 50%
11:00 +23°C° 0 mm 2 mps 725 mmHg 47%
12:00 +24°C° 0 mm 2 mps 724 mmHg 45%
13:00 +24°C° 0 mm 3 mps 724 mmHg 43%
14:00 +24°C° 0 mm 3 mps 724 mmHg 44%
15:00 +24°C° 0 mm 3 mps 723 mmHg 46%
16:00 +24°C° 0 mm 3 mps 723 mmHg 47%
17:00 +21°C° 0 mm 2 mps 723 mmHg 56%
18:00 +20°C° 0 mm 2 mps 723 mmHg 64%
19:00 +20°C° 0 mm 1 mps 723 mmHg 73%
20:00 +18°C° 0 mm 1 mps 723 mmHg 76%
21:00 +16°C° 0 mm 1 mps 723 mmHg 80%
22:00 +13°C° 0 mm 0 mps 723 mmHg 83%
23:00 +13°C° 0 mm 0 mps 723 mmHg 83%

Day after tomorrow, 15 July, Wednesday

Time Temperature Precipitation Wind Pressure Humidity
00:00 +14°C° 0 mm 1 mps 723 mmHg 84%
01:00 +13°C° 0 mm 1 mps 723 mmHg 84%
02:00 +13°C° 0 mm 1 mps 723 mmHg 84%
03:00 +13°C° 0 mm 1 mps 722 mmHg 83%
04:00 +13°C° 0 mm 1 mps 722 mmHg 83%
05:00 +13°C° 0 mm 0 mps 722 mmHg 78%
06:00 +15°C° 0 mm 0 mps 723 mmHg 74%
07:00 +16°C° 0 mm 0 mps 723 mmHg 69%
08:00 +18°C° 0 mm 0 mps 723 mmHg 63%
09:00 +22°C° 0 mm 1 mps 723 mmHg 57%
10:00 +24°C° 0 mm 1 mps 723 mmHg 51%
11:00 +24°C° 0.1 mm 1 mps 723 mmHg 50%
12:00 +25°C° 0.1 mm 2 mps 723 mmHg 49%
13:00 +25°C° 0.1 mm 2 mps 723 mmHg 48%
14:00 +25°C° 0.4 mm 2 mps 723 mmHg 54%
15:00 +24°C° 0.4 mm 1 mps 722 mmHg 60%
16:00 +23°C° 0.4 mm 1 mps 722 mmHg 66%
17:00 +22°C° 0.6 mm 1 mps 722 mmHg 74%
18:00 +20°C° 0.6 mm 1 mps 722 mmHg 82%
19:00 +19°C° 0.6 mm 1 mps 722 mmHg 89%
20:00 +18°C° 0.1 mm 1 mps 722 mmHg 90%
21:00 +16°C° 0.1 mm 1 mps 722 mmHg 90%
22:00 +16°C° 0.1 mm 1 mps 723 mmHg 90%
23:00 +15°C° 0 mm 1 mps 723 mmHg 90%

16 July, Thursday

Time Temperature Precipitation Wind Pressure Humidity
00:00 +15°C° 0 mm 1 mps 723 mmHg 90%
01:00 +14°C° 0 mm 1 mps 723 mmHg 90%
02:00 +14°C° 0 mm 1 mps 723 mmHg 90%
03:00 +14°C° 0 mm 1 mps 723 mmHg 90%
04:00 +14°C° 0 mm 1 mps 723 mmHg 90%
05:00 +15°C° 0 mm 1 mps 723 mmHg 88%
06:00 +16°C° 0 mm 1 mps 723 mmHg 87%
07:00 +16°C° 0 mm 0 mps 724 mmHg 85%
08:00 +19°C° 0.3 mm 1 mps 724 mmHg 84%
09:00 +19°C° 0.3 mm 1 mps 724 mmHg 83%
10:00 +20°C° 0.3 mm 1 mps 724 mmHg 82%
11:00 +19°C° 0.5 mm 1 mps 724 mmHg 84%
12:00 +19°C° 0.5 mm 1 mps 724 mmHg 86%
13:00 +19°C° 0.5 mm 1 mps 724 mmHg 89%
14:00 +19°C° 0.1 mm 1 mps 724 mmHg 87%
15:00 +19°C° 0.1 mm 1 mps 723 mmHg 86%
16:00 +19°C° 0.1 mm 1 mps 723 mmHg 85%
17:00 +19°C° 0 mm 1 mps 723 mmHg 84%
18:00 +19°C° 0 mm 1 mps 724 mmHg 83%
19:00 +17°C° 0 mm 0 mps 724 mmHg 82%
20:00 +18°C° 0 mm 1 mps 724 mmHg 82%
21:00 +18°C° 0 mm 1 mps 724 mmHg 82%
22:00 +16°C° 0 mm 1 mps 724 mmHg 82%
23:00 +16°C° 0.2 mm 1 mps 724 mmHg 84%

17 July, Friday

Time Temperature Precipitation Wind Pressure Humidity
00:00 +16°C° 0.2 mm 1 mps 724 mmHg 85%
01:00 +15°C° 0.2 mm 1 mps 724 mmHg 87%
02:00 +15°C° 0.5 mm 1 mps 724 mmHg 89%
03:00 +15°C° 0.5 mm 1 mps 724 mmHg 91%
04:00 +14°C° 0.5 mm 1 mps 724 mmHg 93%
05:00 +14°C° 0.4 mm 0 mps 724 mmHg 93%
06:00 +14°C° 0.4 mm 0 mps 724 mmHg 92%
07:00 +14°C° 0.4 mm 0 mps 724 mmHg 92%
08:00 +16°C° 0.4 mm 0 mps 724 mmHg 87%
09:00 +17°C° 0.4 mm 0 mps 724 mmHg 82%
10:00 +18°C° 0.4 mm 0 mps 724 mmHg 78%
11:00 +21°C° 0.5 mm 1 mps 724 mmHg 74%
12:00 +21°C° 0.5 mm 1 mps 724 mmHg 71%
13:00 +22°C° 0.5 mm 1 mps 724 mmHg 68%
14:00 +22°C° 0.9 mm 1 mps 724 mmHg 69%
15:00 +21°C° 0.9 mm 1 mps 723 mmHg 71%
16:00 +21°C° 0.9 mm 1 mps 723 mmHg 73%
17:00 +20°C° 0.5 mm 1 mps 723 mmHg 77%
18:00 +17°C° 0.5 mm 0 mps 723 mmHg 80%
19:00 +16°C° 0.5 mm 0 mps 723 mmHg 84%
20:00 +16°C° 0 mm 1 mps 723 mmHg 85%
21:00 +15°C° 0 mm 1 mps 724 mmHg 87%
22:00 +14°C° 0 mm 1 mps 724 mmHg 88%
23:00 +13°C° 0 mm 2 mps 724 mmHg 89%

18 July, Saturday

Time Temperature Precipitation Wind Pressure Humidity
00:00 +13°C° 0 mm 2 mps 724 mmHg 89%
01:00 +12°C° 0 mm 2 mps 724 mmHg 89%
02:00 +12°C° 0 mm 2 mps 724 mmHg 89%
03:00 +12°C° 0 mm 2 mps 724 mmHg 89%
04:00 +10°C° 0 mm 2 mps 723 mmHg 90%
05:00 +13°C° 0 mm 2 mps 724 mmHg 87%
06:00 +14°C° 0 mm 1 mps 724 mmHg 84%
07:00 +16°C° 0 mm 1 mps 724 mmHg 81%
08:00 +18°C° 0.1 mm 1 mps 724 mmHg 74%
09:00 +19°C° 0.1 mm 2 mps 724 mmHg 66%
10:00 +21°C° 0.1 mm 2 mps 724 mmHg 59%
11:00 +20°C° 0.3 mm 2 mps 723 mmHg 61%
12:00 +20°C° 0.3 mm 2 mps 723 mmHg 62%
13:00 +20°C° 0.3 mm 2 mps 723 mmHg 64%
14:00 +21°C° 0.1 mm 2 mps 723 mmHg 59%
15:00 +23°C° 0.1 mm 2 mps 723 mmHg 55%
16:00 +24°C° 0.1 mm 2 mps 723 mmHg 50%
17:00 +22°C° 0.1 mm 1 mps 723 mmHg 60%
18:00 +21°C° 0.1 mm 1 mps 723 mmHg 69%
19:00 +17°C° 0.1 mm 0 mps 722 mmHg 78%
20:00 +18°C° 0.3 mm 1 mps 723 mmHg 81%
21:00 +16°C° 0.3 mm 1 mps 723 mmHg 84%
22:00 +14°C° 0.3 mm 1 mps 723 mmHg 88%
23:00 +14°C° 0.2 mm 1 mps 723 mmHg 88%
Show more